Weather in Nemyriv

Ukraine / Vinnytsia Region     48˚58′45″N   28˚50′37″E
temp.,
°C
wind,
m/s
gust,
m/s
humid.,
%
clouds,
%
prec.,
mm/h
press.,
hPa
HPBL,
m
1 december, tue
tue123:00−3˚n33921 0.0 102876
02:00−4˚n34931 0.0 102892
05:00−4˚n36930 0.0 1027166
08:00−4˚nne38940 0.0 1027221
11:00−1˚nne47727 0.0 1027472
14:00nne476816 0.0 1026553
17:00−2˚nne488979 0.0 1026341
20:00−2˚ne489682 0.1 1026355
2 december, wed
wed223:00−1˚ne369397 0.1 1026276
02:00nne249898 0.3 1027203
05:00ne3698100 0.5 1026235
08:00ene2597100 0.7 1026260
11:00e2388100 0.1 1026331
14:00+1˚e119599 0.3 1025161
17:00ese1299100 0.3 1025132
20:00ese1298100 0.4 1025138
3 december, thu
thu323:00−1˚ese119898 0.1 102550
02:00se139896 0.3 1025166
05:00−1˚sse119999 0.2 102464
08:00−1˚ssw239797 0.3 1024174
11:00+2˚se358798 0.0 1023459
14:00+1˚sse468499 0.0 1023641
17:00+1˚sse488394 0.0 1022615
20:00+1˚se6109197 0.0 1022412
4 december, fri
fri423:00+2˚se61292100 0.0 1020451
02:00+3˚se71489100 0.0 1019493
05:00+3˚se7158698 0.0 1018476
08:00+2˚se7168877 0.0 1019481
11:00+5˚se9167419 0.0 1018694
14:00+6˚se9157428 0.0 1017708
17:00+3˚se7148773 0.0 1017537
20:00+4˚se9159376 0.0 1018564
5 december, sat
sat523:00+3˚se81296100 0.0 1018636
02:00+4˚se71393100 0.0 1018541
05:00+4˚se71495100 0.2 1017487
08:00+4˚se81495100 1.4 1018461
11:00+5˚se81394100 0.1 1018494
14:00+6˚se81388100 0.1 1018692
17:00+5˚se81388100 0.0 1018563
20:00+4˚se81789100 0.0 1019508